SCP
1 1 1 1 1 1 1 1 1 1 1 1 1 1 1 1 1 1 1 1 1 1 0 0 0 1 1 1 1 1 1 1 1 1 1 1 1 1 1 1 1 1 1
1 1 1 1 1 1 1 1 1 1 1 1 1 1 1 1 1 1 1 1 1 1 1 1 1 1 1 1 1 1 1 1 1 1 1 1 1 1 1 1 1 1 1
1 1 1 1 1 1 1 1 1 1 1 1 1 1 1 1 1 1 1 1 1 1 1 1 1 1 1 1 1 1 1 1 1 1 1 1 1 1 1 1 1 1 1
1 1 1 1 1 0 1 1 1 1 1 1 1 1 0 1 1 1 1 1 1 1 1 1 1 1 1 1 1 1 1 1 1 1 1 1 1 1 1 1 1 1 1
1 1 1 1 1 0 0 0 1 1 1 1 0 0 1 1 1 1 1 1 1 1 1 1 1 1 1 1 1 1 1 1 1 1 1 1 1 1 1 1 1 0 1
1 1 1 1 1 0 0 0 0 0 0 0 0 0 1 1 1 1 1 1 1 1 1 1 1 1 1 1 1 1 1 1 1 1 1 1 1 1 1 1 1 1 1
1 1 1 1 0 0 0 0 0 0 0 0 0 0 1 1 1 1 1 1 1 1 2 1 1 1 1 1 1 1 1 1 1 1 1 1 1 1 1 1 1 1 1
1 1 1 1 0 0 0 0 0 0 0 0 0 0 0 1 1 1 1 1 1 2 2 2 1 1 1 1 1 1 1 1 1 1 1 1 1 1 1 1 1 1 1
1 1 1 1 0 0 0 0 0 0 0 0 0 0 0 0 1 1 1 1 1 1 2 2 1 1 1 1 1 1 1 2 1 1 1 1 1 1 1 1 1 1 1
1 1 1 1 0 0 0 0 0 0 0 0 0 0 0 0 1 1 1 1 1 1 1 1 1 1 1 1 1 1 1 2 2 1 1 1 1 1 1 1 1 1 1
1 1 1 1 0 0 0 0 0 0 0 0 0 0 0 0 0 0 0 0 1 1 1 1 1 1 1 1 1 1 2 2 2 2 1 1 1 1 1 1 1 1 1
1 1 1 1 0 0 0 0 0 0 0 0 0 0 0 0 0 0 0 0 1 1 1 1 1 1 1 1 1 2 2 2 2 1 1 1 1 1 1 1 1 1 1
1 1 1 1 0 0 0 0 0 0 0 0 0 0 0 0 0 0 0 0 0 1 1 1 1 1 1 1 1 1 2 1 1 1 1 1 1 1 1 1 1 1 1
1 1 1 1 0 0 0 0 0 0 0 0 0 0 0 0 0 0 0 0 0 0 0 1 1 1 1 1 1 1 1 1 1 1 1 1 1 1 1 1 1 1 1
1 1 1 1 0 0 0 0 0 0 0 0 0 0 0 0 0 0 0 0 0 0 0 0 1 1 1 1 1 1 1 1 0 0 0 1 1 1 1 1 1 1 1
1 1 1 1 0 0 0 0 0 0 0 0 0 0 0 0 0 0 0 0 0 0 0 0 0 0 0 0 1 1 1 1 0 0 0 0 1 1 1 1 1 1 1
1 1 1 1 0 0 0 0 0 0 0 0 0 0 0 0 0 0 0 0 0 0 0 0 0 0 0 0 1 1 1 1 0 0 0 0 0 1 1 1 1 1 1
1 1 1 0 0 0 0 0 0 0 0 0 0 0 0 0 0 0 0 0 0 0 0 0 0 0 0 0 1 1 1 1 0 0 0 0 0 0 1 1 1 1 1
1 1 1 0 0 0 0 0 0 0 0 0 0 0 0 0 0 0 0 0 0 0 0 0 0 0 0 0 0 0 0 0 0 0 0 0 0 0 0 0 0 0 0
1 1 1 0 0 0 0 0 0 0 0 0 0 0 0 0 0 0 0 0 0 0 0 0 0 0 0 0 0 0 0 0 0 0 0 0 0 0 0 0 0 0 0
1 1 1 1 1 1 1 1 1 1 0 0 0 0 0 0 0 0 0 0 0 0 0 0 0 0 0 0 0 0 0 0 0 0 0 0 0 1 1 0 0 0 0
1 1 1 1 1 1 0 0 0 1 1 0 0 0 0 0 0 0 0 0 0 0 0 0 0 0 0 0 0 0 0 0 0 0 0 0 0 1 1 1 0 0 0
1 1 1 1 1 1 0 0 0 0 0 1 0 0 0 0 0 0 0 0 0 0 0 0 0 0 0 0 0 0 0 0 0 0 0 0 0 1 1 1 0 0 0
1 1 1 1 1 1 0 0 0 0 0 0 0 0 0 0 0 0 0 0 0 0 0 0 0 0 0 0 0 0 0 0 0 0 0 0 0 1 1 1 0 0 0
1 1 1 1 1 0 0 0 0 0 0 0 1 1 0 0 0 0 0 0 0 0 0 0 0 0 0 0 0 0 0 0 0 0 0 0 0 0 1 0 0 0 0
1 1 1 0 0 0 0 0 0 0 0 1 1 1 0 0 0 0 0 0 0 0 0 0 0 0 0 0 0 0 0 0 0 0 0 0 0 0 0 0 0 0 0
Wind_Speed
3 3 2 3 3 3 3 3 3 4 4 5 4 4 4 5 4 4 4 9 9 9 8 7 6 6 6 6 6 6 6 6 6 6 6 6 6 5 5 4 3 3 3
2 2 3 3 3 3 3 3 4 3 4 4 4 4 4 4 4 4 3 6 9 9 9 8 7 6 5 5 5 5 5 5 5 5 6 6 6 6 6 5 5 5 4
2 2 2 2 2 2 3 3 4 3 3 3 4 4 4 4 3 3 3 3 4 7 8 9 8 7 5 4 5 5 5 5 5 5 5 5 5 5 5 6 6 5 5
2 2 2 2 2 2 2 2 2 3 3 3 3 3 3 2 3 3 3 3 2 3 5 8 8 7 6 5 5 5 5 5 5 5 5 5 5 5 5 5 6 6 6
2 2 2 2 2 2 2 2 2 2 3 3 2 2 2 3 3 2 3 3 3 2 2 6 7 7 7 6 5 4 4 4 5 4 4 4 4 5 5 5 5 5 6
1 2 1 2 2 2 2 2 3 2 2 2 2 2 2 2 2 3 3 3 3 3 3 2 2 5 7 7 6 5 4 4 4 4 4 4 4 4 4 5 4 5 5
1 2 1 1 1 2 2 2 2 2 2 1 1 1 2 2 3 2 2 2 3 3 3 3 2 2 3 6 5 5 4 3 3 3 3 3 4 4 4 4 4 4 4
1 1 1 1 2 2 2 2 2 1 1 0 1 1 1 2 1 2 1 1 2 2 2 2 2 2 2 1 5 5 4 4 3 2 3 3 3 3 3 3 3 3 3
2 1 1 1 1 2 2 2 2 2 1 1 1 2 2 1 1 1 1 1 1 1 1 2 2 2 2 2 2 5 6 5 3 3 3 2 2 2 3 2 2 2 3
2 1 1 1 1 1 2 2 2 2 2 1 0 1 3 2 2 1 1 1 0 1 1 1 1 2 2 2 3 5 5 5 4 3 2 2 2 2 2 2 1 1 2
2 2 1 1 1 1 1 2 2 2 2 1 1 1 1 1 3 2 1 1 1 0 1 1 1 1 1 1 1 4 4 4 3 3 2 1 1 1 1 1 1 1 1
2 3 2 2 1 1 2 2 2 2 2 2 2 1 1 1 2 2 2 2 1 0 0 0 1 0 0 0 2 4 3 3 2 2 2 2 2 1 1 1 1 0 1
2 3 3 2 2 1 2 2 2 2 2 2 2 2 2 2 2 2 2 2 2 1 1 2 1 1 1 0 1 2 2 2 3 3 2 2 2 2 1 1 1 1 0
3 3 3 2 2 2 2 2 2 2 2 2 2 2 2 2 2 2 2 2 2 2 2 1 1 1 0 0 2 2 2 2 1 2 2 2 2 2 2 2 2 2 1
3 4 3 3 3 3 3 3 2 3 3 2 2 2 2 1 2 2 2 3 3 3 2 1 1 1 1 1 0 2 1 3 1 1 1 1 1 1 1 1 2 2 2
4 4 4 4 3 3 3 3 3 2 3 2 2 3 2 2 2 2 2 3 3 3 2 1 1 1 1 1 1 2 1 3 2 1 1 1 1 1 1 1 1 2 2
4 5 4 4 4 3 4 4 3 3 4 3 3 3 3 2 2 2 2 2 3 3 3 2 1 1 2 2 1 2 1 2 2 2 1 1 1 1 1 1 1 1 1
5 5 5 5 4 4 4 4 4 4 4 4 3 3 3 2 3 3 2 3 3 3 4 3 2 2 3 2 2 2 2 2 2 3 2 1 2 1 1 1 0 0 1
4 5 5 5 4 4 4 4 4 4 4 4 4 3 3 3 3 2 3 3 3 3 3 4 3 2 2 2 2 2 2 2 2 2 3 3 3 2 1 1 1 1 1
4 4 4 4 4 4 4 4 4 4 4 4 4 4 3 4 3 3 3 3 3 3 3 4 3 3 2 2 3 2 2 2 2 1 1 2 3 4 3 2 2 2 2
4 3 3 4 4 3 3 3 3 4 4 4 4 4 3 3 3 3 3 3 3 3 3 3 3 3 3 3 3 3 3 3 2 2 2 2 3 3 4 4 4 2 2
4 4 4 3 3 2 2 2 4 4 4 4 4 4 3 4 4 4 4 4 4 4 4 4 4 4 4 3 3 3 3 3 2 1 2 2 2 2 2 2 2 3 2
4 4 4 4 4 3 3 4 4 4 4 4 3 3 3 3 4 5 5 6 5 5 6 6 5 5 4 4 4 4 3 3 3 1 2 3 2 2 2 1 3 3 3
4 4 4 4 4 3 3 3 5 5 4 4 4 4 4 4 3 3 4 5 5 4 5 6 5 4 3 3 3 4 3 3 3 1 2 3 2 3 2 2 4 4 3
3 4 4 4 4 4 4 4 5 4 4 4 4 4 4 4 3 4 5 4 4 3 2 4 3 2 1 1 2 2 3 4 3 3 2 3 3 3 3 3 3 5 4
4 4 4 4 4 4 3 4 5 3 3 3 3 3 3 4 3 5 6 5 5 4 4 4 5 5 4 4 4 4 3 4 3 2 2 3 2 2 3 2 2 3 4
Wind_Direction
82 83 77 71 70 73 83 79 75 71 66 60 56 55 60 64 63 64 72 64 52 52 59 67 70 75 73 73 75 78 81 85 87 86 84 84 81 81 83 78 69 69 74
78 74 73 68 64 70 70 83 86 77 68 65 62 60 56 61 63 70 67 75 64 53 52 57 61 64 69 72 75 81 83 84 87 88 88 86 85 79 77 74 72 67 69
89 81 68 69 66 76 85 81 84 77 77 76 71 62 56 47 53 62 62 54 73 71 56 50 51 52 58 62 72 79 84 84 85 90 88 85 83 78 75 73 69 66 66
90 79 78 76 74 77 77 87 85 87 84 70 65 63 69 67 59 56 64 71 56 61 74 58 50 47 50 55 66 74 86 88 89 93 90 86 83 82 76 70 68 66 64
94 98 85 89 91 84 77 82 88 86 86 76 66 60 54 59 56 54 57 51 56 56 70 84 67 53 50 53 56 66 80 93 94 95 95 92 88 83 77 71 69 69 66
95 94 109 107 98 95 92 97 103 94 82 83 75 65 59 66 68 51 46 48 37 38 36 51 81 83 69 58 53 58 67 82 92 97 97 97 92 84 80 75 70 67 69
104 102 127 107 99 94 96 109 112 117 107 96 110 109 101 71 61 71 47 33 46 40 28 38 36 44 93 86 60 51 55 67 85 96 101 103 98 91 86 78 73 68 63
137 130 145 134 125 118 129 121 131 138 119 241 294 272 197 161 115 70 69 42 36 46 22 24 44 51 26 58 76 61 43 44 64 89 96 95 97 98 90 81 76 74 71
154 159 155 145 153 165 152 167 174 183 203 217 305 306 297 353 87 132 53 47 34 14 4 13 18 40 47 41 69 77 50 35 46 73 83 85 92 95 90 82 78 80 82
152 164 169 171 163 163 175 192 189 209 220 220 144 317 324 345 295 207 169 97 25 340 351 2 356 23 49 51 65 58 53 34 28 43 63 73 67 74 81 77 73 96 98
162 162 176 189 183 183 196 202 203 220 217 246 239 227 271 278 276 289 272 232 203 252 348 331 310 351 33 35 36 62 56 36 23 28 35 48 52 53 57 69 60 106 120
178 172 176 187 197 198 199 205 212 215 235 237 242 233 238 254 272 271 266 250 245 188 188 289 274 297 339 356 70 67 59 41 30 29 33 36 32 34 36 26 21 52 144
189 184 182 193 190 198 202 212 218 221 226 233 244 254 257 266 285 283 276 272 271 233 203 208 209 226 261 273 105 97 95 65 37 32 30 32 30 30 28 10 357 350 237
204 188 190 194 197 201 208 212 234 227 232 232 239 242 249 257 261 270 283 283 271 249 223 219 170 192 239 264 55 241 136 107 49 19 17 25 18 22 20 14 6 2 349
202 194 197 199 201 206 212 207 226 225 230 241 244 232 234 244 244 249 254 260 272 268 252 200 209 196 238 263 153 237 208 107 105 45 22 8 357 348 347 358 3 10 11
202 195 198 202 201 203 213 215 229 243 237 227 241 244 238 232 232 233 247 253 260 271 270 243 229 216 237 247 220 253 210 130 145 114 24 340 291 277 285 301 331 8 22
207 202 200 206 203 206 210 209 220 223 235 230 225 235 239 239 230 221 230 242 245 255 253 246 238 235 221 230 205 249 230 222 171 162 204 288 284 261 270 283 312 24 14
206 207 203 207 205 210 213 215 217 222 230 235 232 233 236 232 239 240 235 238 238 245 244 240 225 233 240 235 241 248 237 231 225 147 182 245 256 255 263 261 264 343 333
206 209 205 208 207 209 212 218 218 220 224 230 234 237 235 229 231 237 239 243 241 237 235 234 229 221 232 222 233 240 236 249 249 177 182 213 225 235 241 240 242 265 297
205 210 208 205 205 207 212 213 219 225 221 224 235 241 237 231 236 241 240 239 237 233 230 231 224 212 207 213 233 235 227 222 237 234 207 224 203 211 219 222 225 232 251
204 206 210 208 203 206 211 221 221 227 224 223 229 233 236 249 268 268 269 252 237 229 225 228 225 220 212 209 223 227 234 230 220 226 232 229 210 216 202 201 204 206 226
197 197 205 208 208 206 157 223 248 229 230 228 230 232 227 222 226 229 250 265 267 245 233 232 229 226 229 227 228 231 231 236 232 203 247 247 237 238 232 221 150 175 211
195 203 206 208 210 192 176 207 236 244 235 232 235 235 232 228 228 225 218 223 234 248 249 255 248 243 238 228 225 227 232 241 251 232 260 252 237 251 253 176 148 186 213
197 204 209 213 212 201 188 214 232 238 240 239 237 237 235 234 226 242 235 230 232 236 240 242 249 255 257 240 233 241 240 242 249 225 239 260 251 254 251 218 163 193 220
206 209 211 218 218 206 191 216 238 238 239 242 243 243 241 235 222 240 239 234 231 227 230 243 269 270 333 330 276 232 221 226 232 220 218 253 259 261 259 236 173 179 201
215 218 217 223 224 222 179 208 241 241 246 249 250 241 231 249 235 233 233 229 230 225 217 206 211 214 212 193 212 232 238 238 242 230 200 235 244 247 246 226 214 197 197